Orbital Elements at Epoch 2459200.5 (2020-Dec-17.0) TDB
Reference: JPL 31 (heliocentric ecliptic J2000)
Element | Value | Uncertainty (1-sigma) | Units |
e | .06956947906366839 | 4.321e-08 | |
a | 2.289701570353014 | 8.6479e-09 | au |
q | 2.130408224892291 | 1.0287e-07 | au |
i | 6.983050151112407 | 3.7045e-06 | deg |
node | 88.48759500463171 | 3.7687e-05 | deg |
peri | 338.126410613415 | 4.9764e-05 | deg |
M | 75.46409527002695 | 3.3261e-05 | deg |
tp | 2458935.219932851489 (2020-Mar-26.71993285) | 0.00011647 | TDB |
period | 1265.513405172901 3.46 | 7.1696e-06 1.963e-08 | d yr |
n | .2844695271725036 | 1.6116e-09 | deg/d |
Q | 2.448994915813736 | 9.2496e-09 | au |
|
| | Orbit Determination Parameters
Additional Information
|